Location: Newark
(49.3000°N, 9.4667°E)
Time: 01:43:00
(UTC+00:00)

Tiros 1 - Pass Details

Date: 27 May 2019
Orbit: 631 x 664 km, 48.4° (Epoch: 16 June)

Event Time Altitude Azimuth Distance (km) Brightness Sun altitude
Rises 11:55:54 0° 274° (W) 2,935 10.6 61.1°
Reaches altitude 10° 11:58:13 10° 273° (W) 2,030 10.0 60.9°
Maximum altitude 12:02:54 77° 188° (S) 664 9.1 60.7°
Drops below altitude 10° 12:07:37 10° 103° (ESE) 2,049 9.8 60.4°
Sets 12:09:58 0° 102° (ESE) 2,965 10.5 60.2°
